Starlink 33916

operational
NORAD ID: 63792 Int'l Des: 2025-091 Owner: SPXS Country: US Constellation: starlink
LEOCIRCULAR

About Starlink 33916

Description loading...

Live Position

Loading 3D Globe...

Upcoming Passes

Altitude History

Altitude vs Time

uPlot chart will show altitude changes over time

Two-Line Element Set

1 63792U 25091T 25352.18286423 .00019249 00000-0 70700-3 0 9997
2 63792 43.0013 153.1063 0001756 274.2479 85.8172 15.27588828 36434
Epoch: Dec 18, 2025 • Age: 13 hours

Current Status

Altitude 487.2 km
Velocity 7.63 km/s
Sub-Earth Point 42.52°N, 96.02°W
Launch Date May 2, 2025
Age 0.6 years
Type internet

Technical Details

Classification Payload
Mass 575.00 kg
Dry Mass 530.00 kg
Total Mass 575.00 kg
Length 0.30 m
Diameter 4.10 m
Span 29.00 m
Shape Box + pan
Manufacturer SPXS
Bus Type Starlink V2MO
Phase Status In Orbit
Owner/State SPXS/US

Large Constellations

Loading constellations...